This is the latest recevied weather packets stored in our database for station/object KK7ISX. If no packets are shown the sender has not sent any weather packets the latest 10 day(s).
| Time | Temp. | Humidity | Pressure | Rain* | Wind** | Luminosity | Snow |
|---|---|---|---|---|---|---|---|
| 1777947102 | 25.56° C | 32% | 1003.1 hPa | 0 mm | - | 35 W/m² | - |
| 1777946798 | 26.11° C | 32% | 1003 hPa | 0 mm | - | 37 W/m² | - |
| 1777946494 | 26.11° C | 32% | 1003.2 hPa | 0 mm | - | 43 W/m² | - |
| 1777946192 | 26.11° C | 31% | 1003.1 hPa | 0 mm | - | 50 W/m² | - |
| 1777945888 | 26.11° C | 31% | 1003.2 hPa | 0 mm | - | 63 W/m² | - |
| 1777945585 | 26.11° C | 31% | 1003.3 hPa | 0 mm | - | 73 W/m² | - |
| 1777945282 | 26.11° C | 31% | 1003.3 hPa | 0 mm | - | 76 W/m² | - |
| 1777944980 | 26.11° C | 31% | 1003.3 hPa | 0 mm | - | 74 W/m² | - |
| 1777944676 | 26.67° C | 30% | 1003.3 hPa | 0 mm | - | 78 W/m² | - |
| 1777944374 | 26.67° C | 29% | 1003.3 hPa | 0 mm | - | 77 W/m² | - |
| 1777944066 | 26.67° C | 29% | 1003.2 hPa | 0 mm | - | 101 W/m² | - |
| 1777943761 | 27.22° C | 28% | 1003.4 hPa | 0 mm | - | 113 W/m² | - |
| 1777943458 | 26.67° C | 28% | 1003.4 hPa | 0 mm | - | 97 W/m² | - |
| 1777943153 | 26.67° C | 29% | 1003.3 hPa | 0 mm | - | 105 W/m² | - |
| 1777942850 | 27.22° C | 29% | 1003.4 hPa | 0 mm | - | 145 W/m² | - |
| 1777942546 | 27.22° C | 28% | 1003.5 hPa | 0 mm | - | 152 W/m² | - |
| 1777942244 | 27.22° C | 26% | 1003.5 hPa | 0 mm | - | 174 W/m² | - |
| 1777941941 | 27.22° C | 25% | 1003.5 hPa | 0 mm | - | 180 W/m² | - |
| 1777941638 | 27.22° C | 25% | 1003.8 hPa | 0 mm | - | 195 W/m² | - |
| 1777941335 | 27.22° C | 25% | 1003.9 hPa | 0 mm | - | 187 W/m² | - |
| 1777941032 | 27.78° C | 25% | 1003.7 hPa | 0 mm | - | 210 W/m² | - |
| 1777940732 | 27.78° C | 25% | 1003.7 hPa | 0 mm | - | 220 W/m² | - |
| 1777940432 | 27.22° C | 24% | 1003.9 hPa | 0 mm | - | 232 W/m² | - |
| 1777940128 | 27.78° C | 25% | 1004 hPa | 0 mm | - | 245 W/m² | - |
| 1777939825 | 27.22° C | 24% | 1003.8 hPa | 0 mm | - | 251 W/m² | - |
* Rain latest hour (hover to see other rain measurements)
** Current wind speed in m/s (hover to see current wind gust speed)